This demonstration page uses our WeatherBlox Daily Observations layout. Learn more.

Left ArrowRight Arrow

39.01783, -85.05884

Hourly Observations for August 6, 2016

Temp ( °F °C ) Dew Point ( °F °C ) Humidity (%) Winds ( mph kmh ) Pressure ( in mb ) Visibility ( mi km ) Precip ( " mm )
12:52 am 00:52 Mostly Cloudy with Mist and Fog 76 24.4 75 23.9 97 97 SW 5 7 29.89 1012 6 10 0.00 0.00
1:52 am 01:52 Mostly Cloudy with Mist and Fog 75 23.9 74 23.3 96 96 SW 6 9 29.88 1012 6 10 0.00 0.00
2:52 am 02:52 Cloudy 75 23.9 74 23.3 96 96 Calm 29.88 1012 8 13 0.00 0.00
3:52 am 03:52 Cloudy with Mist and Fog 74 23.3 73 22.8 97 97 Calm 29.87 1012 6 10 0.00 0.00
4:52 am 04:52 Mostly Cloudy with Mist and Fog 73 22.8 73 22.8 100 100 S 3 6 29.88 1012 5 8 0.00 0.00
5:06 am 05:06 Cloudy with Mist and Fog 73 23 73 23 100 100 Calm 29.88 1012 5 8 0.00 0.00
5:52 am 05:52 Cloudy 75 23.9 74 23.3 96 96 NW 5 7 29.88 1012 7 11 0.00 0.00
6:08 am 06:08 Cloudy 75 24 73 23 94 94 NNW 6 9 29.88 1012 8 13 0.00 0.00
6:21 am 06:21 Cloudy 75 24 73 23 94 94 NNW 12 19 29.88 1012 9 14 0.00 0.00
6:30 am 06:30 Cloudy with Light Rain 75 24 73 23 94 94 N 12 19 29.91 1013 5 8 0.00 0.00
6:52 am 06:52 Cloudy 73 22.8 68 20 84 84 N 12 19 29.90 1013 10 16 0.01 0.25
7:52 am 07:52 Cloudy 73 22.8 65 18.3 76 76 NE 5 7 29.90 1013 10 16 0.00 0.00
8:52 am 08:52 Mostly Cloudy 74 23.3 63 17.2 69 69 NNE 5 7 29.91 1013 10 16 0.00 0.00
9:52 am 09:52 Mostly Cloudy 77 25 66 18.9 69 69 NNW 6 9 29.92 1013 10 16 0.00 0.00
10:52 am 10:52 Mostly Cloudy 80 26.7 67 19.4 64 64 N 6 9 29.92 1013 10 16 0.00 0.00
11:52 am 11:52 Mostly Cloudy 82 27.8 65 18.3 56 56 N 5 7 29.93 1013 10 16 0.00 0.00
12:52 pm 12:52 Partly Cloudy 82 27.8 63 17.2 53 53 VRB 5 7 29.92 1013 10 16 0.00 0.00
1:52 pm 13:52 Partly Cloudy 84 28.9 64 17.8 51 51 VRB 3 6 29.92 1013 10 16 0.00 0.00
2:52 pm 14:52 Partly Cloudy 86 30 64 17.8 48 48 NW 6 9 29.91 1013 10 16 0.00 0.00
3:52 pm 15:52 Partly Cloudy 85 29.4 63 17.2 48 48 NW 10 17 29.89 1012 10 16 0.00 0.00
4:52 pm 16:52 Partly Cloudy 85 29.4 62 16.7 46 46 N 12 19 29.88 1012 10 16 0.00 0.00
5:52 pm 17:52 Partly Cloudy 84 28.9 61 16.1 46 46 NNW 12 19 29.87 1012 10 16 0.00 0.00
6:52 pm 18:52 Mostly Sunny 83 28.3 61 16.1 48 48 NNW 9 15 29.88 1012 10 16 0.00 0.00
7:52 pm 19:52 Mostly Sunny 82 27.8 62 16.7 51 51 NNW 7 11 29.90 1012 10 16 0.00 0.00
8:52 pm 20:52 Mostly Clear 77 25 63 17.2 62 62 WNW 5 7 29.90 1013 10 16 0.00 0.00
9:52 pm 21:52 Clear 73 22.8 64 17.8 74 74 WNW 3 6 29.93 1013 10 16 0.00 0.00
10:52 pm 22:52 Clear 69 20.6 65 18.3 87 87 Calm 29.93 1014 10 16 0.00 0.00
11:52 pm 23:52 Clear 73 22.8 62 16.7 69 69 NNW 8 13 29.93 1013 10 16 0.00 0.00

Powered by AerisWeather